Terug naar catalogus

STARLINK-37390

ActiefCommunicatieSSO
NORAD 68782·PAYLOAD·🇺🇸 United States

Gelanceerd Apr 19, 2026 vanaf Vandenberg Space Force Base

Loading…

Volgende Passages (komende 24 uur)

TLE

VersSource: CelesTrak SupGP

Epoch: Sep 15, 2026, 04:12 UTC

1 68782C 26086S   26258.17548611 -.00056462  00000+0 -17528-2 0  2586
2 68782  97.2843 293.7112 0001059  91.6753 176.4173 15.33467013    10

Volg STARLINK-37390 in realtime met AllMySat

Download on the App Store